Weather in Kargala

Russia / Orenburg Oblast     51°53′26″N   54°52′07″E
temp.,
°C
wind,
m/s
gust,
m/s
humid.,
%
clouds,
%
prec.,
mm/h
press.,
hPa
HPBL,
m
28 february, sun
sun2823:000sw5998100 1.8 1001409
02:000sw4998100 0.4 1000475
05:000sw5898100 0.9 999498
08:00−1sw4798100 0.6 999309
11:00−1wsw5894100 1.3 999529
14:00−4w569499 0.3 1001288
17:00−7wnw589290 0.3 1004338
20:00−10wnw4109298 0.1 1008325
1 march, mon
mon123:00−13w369499 0.1 1010180
02:00−14w369596 0.1 1013129
05:00−14w359595 0.2 1014133
08:00−15w249592 0.1 1016111
11:00−13wnw349294 0.3 1018251
14:00−12wnw359193 0.1 1019371
17:00−12wnw359196 0.2 1020395
20:00−14wnw349489 0.1 1021103
2 march, tue
tue223:00−19wnw339678 0.1 102223
02:00−21wnw23985 0.0 102220
05:00−23w22985 0.0 102220
08:00−24sw23980 0.0 102121
11:00−20ssw479929 0.0 1019223
14:00−16ssw61096100 0.0 1017365
17:00−12ssw71393100 0.1 1014480
20:00−9ssw71494100 0.4 1011638
3 march, wed
wed323:00−4ssw81495100 1.2 1008786
02:00−3ssw81496100 1.1 1004817
05:00−3sw71396100 2.1 1002705
08:00−3sw51195100 0.4 1001443
11:00−2wsw589599 0.6 1001405
14:00−1w469197 0.2 1002601
17:00−2w579498 0.4 1002472
20:00−4wsw4895100 0.3 1003220
4 march, thu
thu423:00−5nw3594100 0.3 1005133
02:00−5wnw3892100 0.0 1006292
05:00−7wnw3395100 0.0 100850
08:00−8wnw3694100 0.0 1009122
11:00−7nw499296 0.0 1012341
14:00−6wnw589048 0.0 1014467
17:00−7w489254 0.0 1015320
20:00−11wsw599417 0.0 1017178